sat.trackr.live / text

‹ back to catalog

STARLINK-36324

NORAD 68091 · 2026-042Y

PAYLOAD ACTIVE UNKNOWN

§ Identity

Operator
Country
US
Launch date
2026-03-04
Launch site
AFETR
Launch vehicle
Mass (kg)
RCS (m²)

Purposes: comms

External: N2YO · Heavens-Above · Gunter

§ Orbital elements

Epoch: 2026-05-25T01:49:38.669664Z

Period
93.85 min
Inclination
53.1580°
Eccentricity
0.0001306
Mean motion
15.34403025 rev/d
Perigee alt
461.8 km
Apogee alt
463.6 km
Semi-major
6,840.8 km
B*
5.0568e-4
RAAN
182.9638°
Arg perigee
81.5486°
Mean anomaly
278.5665°
Rev number
1,401

§ Raw data

STARLINK-363241 68091U 26042Y   26145.07614201  .00016749  00000+0  50568-3 0  99902 68091  53.1580 182.9638 0001306  81.5486 278.5665 15.34403025 14019

JSON: /api/v1/satellites/68091 · /tle

For live sub-satellite position, see the globe view (requires WebGL).

§ Visibility from observer

Set your observer location to see the next 7 days of passes ≥ 10°. The values pass through the URL so the page stays shareable.

No JS? Fill the form by hand. The geolocation button needs JavaScript.